Weather History for KVER - January, 2014

Change the Weather History Date:

Wednesday, January 29, 2014

  Actual Average Record
Temperature  
Mean Temperature 24 °F -  
Max Temperature 39 °F 38 °F 68 °F (1968)
Min Temperature 9 °F 20 °F -11 °F (1966)
Degree Days  
Heating Degree Days 41    
Moisture  
Dew Point 4 °F    
Average Humidity 44    
Maximum Humidity 65    
Minimum Humidity 25    
Precipitation  
Precipitation 0.00 in - - ()
Sea Level Pressure  
Sea Level Pressure 30.18 in    
Wind  
Wind Speed 7 mph (SSW)    
Max Wind Speed 16 mph    
Max Gust Speed 22 mph    
Visibility 10 miles    
Events      
Averages and records for this station are not official NWS values.
T = Trace of Precipitation, MM = Missing Value Source: NWS Daily Summary

Daily Weather History Graph

Daily Weather History Graph

Search for Another Location

Airport or City:

Trip Planner

Search our weather history database for the weather conditions in past years. The results will help you decide how hot, cold, wet, or windy it might be!

Date:

Astronomy

Jan. 29, 2014 Rise Set
Actual Time 7:19 AM CST 5:28 PM CST
Civil Twilight 6:51 AM CST 5:56 PM CST
Nautical Twilight 6:19 AM CST 6:29 PM CST
Astronomical Twilight 5:47 AM CST 7:00 PM CST
Moon 5:56 AM CST 4:28 PM CST
Length of Visible Light 11h 05m
Length of Day
10h 09m
Waning Crescent, 2% of the Moon is Illuminated
Jan 29
Waning Crescent
Jan 30
New
Feb 6
First Quarter
Feb 14
Full
Feb 22
Last Quarter

Hourly Weather History & Observations

Time (CST) Temp. Windchill Dew Point Humidity Pressure Visibility Wind Dir Wind Speed Gust Speed Precip Events Conditions
12:15 AM 12.0 °F 5.9 °F -0.8 °F 57% 30.33 in 10.0 mi SSW 3.5 mph - N/A   Clear
12:35 AM 12.2 °F 6.1 °F -0.6 °F 57% 30.33 in 10.0 mi SSW 3.5 mph - N/A   Clear
12:55 AM 12.2 °F 4.3 °F -0.4 °F 57% 30.32 in 10.0 mi SSW 4.6 mph - N/A   Clear
1:15 AM 12.0 °F 4.1 °F 0.1 °F 59% 30.32 in 10.0 mi SSW 4.6 mph - N/A   Clear
1:35 AM 11.8 °F 3.9 °F 0.3 °F 60% 30.31 in 10.0 mi SSW 4.6 mph - N/A   Clear
1:55 AM 11.8 °F 5.7 °F 0.3 °F 60% 30.31 in 10.0 mi SSW 3.5 mph - N/A   Clear
2:15 AM 11.8 °F 3.9 °F 0.3 °F 60% 30.31 in 10.0 mi SSW 4.6 mph - N/A   Clear
2:35 AM 11.8 °F 3.9 °F 0.5 °F 60% 30.30 in 10.0 mi SSW 4.6 mph - N/A   Clear
2:55 AM 11.8 °F 3.9 °F 0.5 °F 60% 30.30 in 10.0 mi SW 4.6 mph - N/A   Clear
3:15 AM 12.0 °F 4.1 °F 0.5 °F 60% 30.30 in 10.0 mi SSW 4.6 mph - N/A   Clear
3:35 AM 12.0 °F 5.9 °F 0.5 °F 60% 30.30 in 10.0 mi SW 3.5 mph - N/A   Clear
3:55 AM 11.8 °F 3.9 °F 0.5 °F 60% 30.30 in 10.0 mi SSW 4.6 mph - N/A   Clear
4:15 AM 11.7 °F 5.5 °F 0.5 °F 61% 30.29 in 10.0 mi SSW 3.5 mph - N/A   Clear
4:35 AM 11.8 °F 5.7 °F 0.5 °F 60% 30.29 in 10.0 mi SSW 3.5 mph - N/A   Clear
4:55 AM 11.5 °F 3.5 °F 0.5 °F 61% 30.29 in 10.0 mi SSW 4.6 mph - N/A   Clear
5:15 AM 11.3 °F 3.3 °F 0.3 °F 61% 30.28 in 10.0 mi SSW 4.6 mph - N/A   Clear
5:35 AM 11.1 °F 3.1 °F 0.5 °F 62% 30.28 in 10.0 mi SSW 4.6 mph - N/A   Clear
5:55 AM 10.6 °F 1.0 °F 0.5 °F 64% 30.28 in 10.0 mi SSW 5.8 mph - N/A   Clear
6:15 AM 11.5 °F 5.3 °F 0.1 °F 60% 30.28 in 10.0 mi South 3.5 mph - N/A   Clear
6:35 AM 10.4 °F 2.2 °F -0.0 °F 63% 30.28 in 10.0 mi South 4.6 mph - N/A   Clear
6:55 AM 9.7 °F 3.2 °F -0.0 °F 65% 30.28 in 10.0 mi South 3.5 mph - N/A   Clear
7:15 AM 10.4 °F 0.8 °F -0.0 °F 63% 30.28 in 10.0 mi South 5.8 mph - N/A   Clear
7:35 AM 10.2 °F 0.6 °F 0.1 °F 64% 30.28 in 10.0 mi South 5.8 mph - N/A   Clear
7:55 AM 11.3 °F - 0.9 °F 63% 30.29 in 10.0 mi Calm Calm - N/A   Clear
8:15 AM 13.5 °F 5.8 °F 2.7 °F 62% 30.28 in 10.0 mi South 4.6 mph - N/A   Clear
8:35 AM 15.8 °F 8.6 °F 4.3 °F 60% 30.28 in 10.0 mi South 4.6 mph - N/A   Clear
8:55 AM 17.6 °F 9.3 °F 5.9 °F 60% 30.28 in 10.0 mi South 5.8 mph - N/A   Clear
9:15 AM 19.9 °F 12.1 °F 7.0 °F 57% 30.28 in 10.0 mi South 5.8 mph - N/A   Clear
9:35 AM 22.3 °F 12.2 °F 6.1 °F 50% 30.28 in 10.0 mi SSW 9.2 mph - N/A   Clear
9:55 AM 24.3 °F 16.3 °F 6.4 °F 47% 30.28 in 10.0 mi South 6.9 mph - N/A   Clear
10:15 AM 26.8 °F 19.3 °F 6.3 °F 42% 30.27 in 10.0 mi South 6.9 mph - N/A   Clear
10:35 AM 29.1 °F 21.3 °F 5.0 °F 36% 30.27 in 10.0 mi SSW 8.1 mph - N/A   Clear
10:55 AM 30.9 °F 22.8 °F 4.6 °F 33% 30.27 in 10.0 mi SSW 9.2 mph - N/A   Clear
11:15 AM 32.0 °F 23.0 °F 4.5 °F 31% 30.26 in 10.0 mi SSW 11.5 mph 16.1 mph N/A   Clear
11:35 AM 32.7 °F 23.9 °F 5.0 °F 31% 30.25 in 10.0 mi SW 11.5 mph 18.4 mph N/A   Clear
11:55 AM 33.6 °F 25.0 °F 6.1 °F 32% 30.24 in 10.0 mi SW 11.5 mph 17.3 mph N/A   Clear
12:15 PM 34.5 °F 26.2 °F 6.4 °F 31% 30.23 in 10.0 mi SSW 11.5 mph 19.6 mph N/A   Clear
12:35 PM 35.4 °F 27.3 °F 6.6 °F 30% 30.21 in 10.0 mi SSW 11.5 mph 17.3 mph N/A   Clear
12:55 PM 36.5 °F 28.7 °F 6.1 °F 28% 30.19 in 10.0 mi SSW 11.5 mph 20.7 mph N/A   Clear
1:15 PM 37.2 °F 29.6 °F 5.4 °F 27% 30.18 in 10.0 mi South 11.5 mph 16.1 mph N/A   Clear
1:35 PM 37.6 °F 29.1 °F 5.5 °F 26% 30.18 in 10.0 mi SW 13.8 mph 17.3 mph N/A   Clear
1:55 PM 38.3 °F 31.4 °F 5.9 °F 26% 30.16 in 10.0 mi SW 10.4 mph 17.3 mph N/A   Clear
2:15 PM 38.7 °F 32.9 °F 6.6 °F 27% 30.15 in 10.0 mi SW 8.1 mph 20.7 mph N/A   Clear
2:35 PM 38.8 °F 30.0 °F 6.3 °F 26% 30.15 in 10.0 mi SW 16.1 mph 21.9 mph N/A   Clear
2:55 PM 39.2 °F 31.2 °F 6.1 °F 25% 30.13 in 10.0 mi SSW 13.8 mph 19.6 mph N/A   Clear
3:15 PM 39.6 °F 33.0 °F 5.9 °F 25% 30.12 in 10.0 mi SSW 10.4 mph 18.4 mph N/A   Clear
3:35 PM 39.7 °F 33.2 °F 6.4 °F 25% 30.11 in 10.0 mi South 10.4 mph 16.1 mph N/A   Clear
3:55 PM 39.9 °F 33.4 °F 6.1 °F 25% 30.11 in 10.0 mi South 10.4 mph - N/A   Clear
4:15 PM 39.6 °F 32.5 °F 6.4 °F 25% 30.10 in 10.0 mi South 11.5 mph 18.4 mph N/A   Clear
4:35 PM 39.4 °F 31.4 °F 6.6 °F 26% 30.10 in 10.0 mi SSW 13.8 mph 19.6 mph N/A   Clear
4:55 PM 38.7 °F 31.4 °F 6.8 °F 27% 30.10 in 10.0 mi South 11.5 mph 17.3 mph N/A   Clear
5:15 PM 37.4 °F 30.3 °F 6.8 °F 28% 30.08 in 10.0 mi South 10.4 mph - N/A   Clear
5:35 PM 36.1 °F 28.7 °F 6.6 °F 29% 30.07 in 10.0 mi South 10.4 mph - N/A   Clear
5:55 PM 34.0 °F 26.0 °F 6.6 °F 32% 30.06 in 10.0 mi South 10.4 mph - N/A   Clear
6:15 PM 32.2 °F 23.8 °F 7.0 °F 35% 30.06 in 10.0 mi South 10.4 mph - N/A   Clear
6:35 PM 32.0 °F 23.6 °F 6.8 °F 35% 30.05 in 10.0 mi SSE 10.4 mph - N/A   Clear
6:55 PM 32.0 °F 23.6 °F 6.6 °F 34% 30.05 in 10.0 mi SSE 10.4 mph - N/A   Clear
7:15 PM 31.8 °F 23.9 °F 6.3 °F 34% 30.06 in 10.0 mi South 9.2 mph - N/A   Clear
7:35 PM 30.0 °F 21.1 °F 6.8 °F 38% 30.05 in 10.0 mi South 10.4 mph - N/A   Clear
7:55 PM 29.5 °F 20.4 °F 7.5 °F 40% 30.05 in 10.0 mi South 10.4 mph - N/A   Clear
8:15 PM 30.0 °F 21.1 °F 7.3 °F 38% 30.04 in 10.0 mi South 10.4 mph - N/A   Clear
8:35 PM 29.7 °F 20.1 °F 7.7 °F 40% 30.03 in 10.0 mi South 11.5 mph - N/A   Clear
8:55 PM 29.7 °F 20.7 °F 7.7 °F 40% 30.03 in 10.0 mi South 10.4 mph - N/A   Clear
9:15 PM 30.2 °F 20.8 °F 7.2 °F 38% 30.02 in 10.0 mi South 11.5 mph - N/A   Clear
9:35 PM 29.8 °F 19.8 °F 7.7 °F 39% 30.01 in 10.0 mi South 12.7 mph - N/A   Clear
9:55 PM 30.2 °F 20.8 °F 7.2 °F 38% 30.01 in 10.0 mi South 11.5 mph - N/A   Clear
10:15 PM 30.9 °F 23.5 °F 6.8 °F 36% 30.01 in 10.0 mi South 8.1 mph - N/A   Clear
10:35 PM 30.9 °F 22.2 °F 6.8 °F 36% 30.00 in 10.0 mi South 10.4 mph - N/A   Clear
10:55 PM 30.2 °F 21.3 °F 7.5 °F 39% 30.00 in 10.0 mi South 10.4 mph - N/A   Clear
11:15 PM 30.6 °F 21.2 °F 7.3 °F 38% 30.00 in 10.0 mi South 11.5 mph 16.1 mph N/A   Clear
11:35 PM 31.1 °F 22.4 °F 7.0 °F 36% 30.00 in 10.0 mi South 10.4 mph 17.3 mph N/A   Clear
11:55 PM 30.6 °F 20.7 °F 7.3 °F 38% 29.98 in 10.0 mi South 12.7 mph - N/A   Clear